IRIDIUM 33 DEB, 39777

Orbit data source: Space-Track

IRIDIUM 33 DEB, 39777 is space debris in LEO originally from a launch on Sun, 14 Sep 1997 UTC launched from the Tyuratam Missile And Space Complex (TTMTR). The debris from Iridium 33, an American commercial communications satellite, has been tracked extensively since its accidental collision with the defunct Russian satellite Cosmos 2251 in 2009. This event, occurring at high speed in low Earth orbit (LEO), generated thousands of pieces of space debris, significantly increasing the risk of further collisions. The Iridium 33 debris cloud has impacted space traffic management and orbital debris mitigation strategies, making it a subject of ongoing study in space situational awareness.

Loading next visibility...
Identifier
39777, 1997-051AAJ
Orbit
LEO
Country
Flag of USUS
Related business
Manufacturer
Unknown
Mission
Spacecraft
Bus & Motor
Unknown
Mass
Unknown
Launch date (UTC)
1997-09-14 (28 years ago)
Launch vehicle
Unknown
Launch site
Tyuratam Missile And Space Complex (TTMTR)
Object type
Payload
Rocket body
Debris
Shape & HBR
Unknown
Radar Cross Section
Small (<0.1 m²)

Expand to show TLE details & history
Last TLE update: 1 week ago

TLE from 1 week ago
0 IRIDIUM 33 DEB
1 39777U 97051AAJ 25252.67058385  .00005203  00000-0  11969-2 0  9991
2 39777  85.9601 220.5804 0064068 140.7645 219.8231 14.53971013588175
Epoch: 2025-09-09T16:05Z
TLE epoch observation values (Epoch: 2025-09-09T16:05:38.444Z)
Latitude
-0.00007°
Longitude
-9.78781°
Altitude
750.799 km
Speed
7.461 km/s
True Right ascension
14h 42m 19s
True Declination
0° 00' 00"
Sunlit
Object was in daylight at epoch
Visualization orbit readout
Latitude
Unknown
Longitude
Unknown
Altitude
Unknown
Speed
Unknown
Apparent Right ascension
Unknown
Apparent Declination
Unknown
Sunlit
N/A
Visualization observer readout
Local Sidereal Time
01:47:45
Azimuth
Unknown
Elevation
Unknown
Doppler factor
Unknown
Orbital elements
Apogee altitude
755.064 km
Perigee altitude
664.244 km
Semi-major axis
7,087.791 km
Eccentricity
0.00641
Inclination
85.9601°
RAAN
220.5804°
Arg. of periapsis
140.7645°
True anomaly
219.35581°
Mean anomaly
219.8231°
Eccentric anomaly
219.58917°
Mean motion
3.63728 °/min
Orbital period
98.98 mins
BSTAR
0.0011969
Loading maneuver chart data...
Computing Atmospheric mass density...

Documentation

Showing up to 5 results
|